Tracking 35055 objects as of 18-Aug-2026
HD Live streaming from Space Station
objects crossing your sky now

ALMUNTHER

Track ALMUNTHER now!
10-day predictions
ALMUNTHER is classified as:


NORAD ID: 63240
Int'l Code: 2025-052AG
Launch date: March 15, 2025
Source: Bahrain (BHR)
Launch site: AIR FORCE WESTERN TEST RANGE (AFWTR)

Uplink (MHz):
Downlink (MHz): 401.175*/436.500
Beacon (MHz):
Mode: 1k2 BPSK FM
Call sign: ALMTFM
Status: Active

Your satellite tracking list
Your tracking list is empty




NASA's NSSDC Master Catalog

Two Line Element Set (TLE):
1 63240U 25052AG  26230.45361439  .00017138  00000-0  52768-3 0  9998
2 63240  97.3782 125.1448 0003873 298.5053  61.5800 15.33700157 79559
Source of the keplerian elements: AFSPC